Temp
32 28 27 30 29 26 26 27 26 24 26 25 22 21 24 25 22 26 28 28 28 27 27 26 26 26 25 25 24 24 23 22 22 21 21 20 20 19 19 19 18 18 18 19
29 27 29 32 31 27 27 27 26 27 26 24 23 22 21 24 20 21 29 28 28 28 27 27 26 26 25 25 24 23 23 22 22 21 21 20 20 20 20 19 19 20 20 19
28 29 33 33 30 30 27 23 26 25 27 27 24 19 19 21 23 22 28 28 28 29 28 27 27 26 26 25 25 24 23 22 22 21 20 20 19 19 20 20 20 20 20 19
29 31 33 29 31 30 26 31 30 29 28 25 24 22 21 23 22 26 29 27 28 29 29 28 27 27 26 26 25 24 23 23 22 21 20 20 20 20 21 21 20 20 19 18
29 30 30 31 30 31 27 30 27 29 29 27 27 24 24 23 23 26 28 28 28 29 29 29 28 28 27 27 25 25 24 24 23 22 21 20 20 20 20 20 20 19 20 19
30 33 30 31 32 30 32 31 31 30 28 24 25 25 25 22 22 24 25 26 26 29 30 29 29 28 28 27 26 25 25 25 24 23 22 21 20 20 20 20 20 20 19 19
29 31 32 33 30 31 30 27 24 23 25 24 23 25 26 28 25 26 24 27 26 27 30 29 29 28 28 28 27 26 25 25 24 23 22 21 20 20 20 20 20 20 20 19
27 27 30 33 30 28 31 29 24 24 24 22 24 26 27 23 23 25 25 24 24 24 25 26 28 24 20 28 27 26 25 24 23 22 22 21 20 20 20 20 19 19 19 19
26 28 32 32 33 32 30 28 27 25 24 23 25 27 26 23 22 22 29 27 24 24 25 23 26 23 20 27 26 25 24 23 22 21 21 20 20 19 19 19 19 19 19 19
28 26 30 33 33 32 30 25 24 20 22 22 21 23 22 20 19 21 27 27 26 25 26 25 25 22 25 25 24 22 22 21 22 21 20 20 20 20 20 19 20 19 19 19
28 27 29 30 31 29 30 27 26 20 19 22 21 22 20 20 20 21 20 21 27 26 25 25 25 25 25 24 23 22 22 21 21 21 21 20 21 20 20 20 19 19 18 18
29 28 26 28 31 33 31 30 28 23 23 21 24 22 23 21 20 22 25 23 27 26 25 25 24 24 24 23 23 22 21 21 21 20 20 20 20 20 20 20 19 18 18 17
30 26 24 26 28 32 31 30 31 29 28 27 25 22 19 18 20 27 29 25 25 26 25 24 24 23 23 22 22 21 21 21 20 20 19 19 19 19 19 18 18 18 17 17
31 27 26 25 29 28 29 29 31 29 26 26 25 21 19 19 18 23 22 24 25 26 24 23 23 22 22 21 21 20 20 20 18 18 18 18 18 18 17 16 17 17 17 17
29 26 27 28 31 31 31 30 31 29 28 29 27 25 22 22 21 21 22 25 25 24 23 23 22 21 21 20 19 19 18 18 17 17 17 16 16 16 16 16 16 16 17 17
29 25 28 27 31 30 30 32 31 33 32 31 28 27 25 24 25 25 25 25 25 24 23 22 22 21 20 19 18 18 18 18 17 17 17 16 16 16 15 15 16 17 17 17
27 26 25 25 27 29 28 30 31 31 32 32 27 25 22 23 24 24 25 25 25 24 23 22 21 20 19 19 18 18 18 17 17 17 15 15 15 15 15 16 17 16 16 16
26 25 24 24 26 25 28 31 32 32 31 28 28 24 25 25 25 27 26 26 25 24 23 23 22 21 20 19 19 18 17 16 16 15 15 14 14 14 15 16 16 15 15 15
29 25 24 24 23 27 29 30 32 30 30 29 27 23 20 21 25 25 27 26 25 24 23 23 22 21 20 19 19 17 17 16 15 15 14 14 14 15 15 14 14 14 14 14
29 27 25 24 25 25 28 29 32 32 24 25 22 22 21 23 25 23 27 26 25 24 23 22 21 20 19 18 17 17 16 16 15 14 14 14 14 13 14 13 14 13 13 13
22 23 25 25 25 27 28 28 31 29 25 24 22 20 25 26 27 27 27 25 24 24 22 21 20 20 18 18 17 17 17 16 15 14 14 14 13 13 13 12 12 12 12 11
20 19 21 22 25 25 26 28 27 24 26 27 28 22 25 27 27 27 25 24 24 22 21 20 19 17 17 17 17 17 16 15 14 14 13 13 13 12 12 12 11 11 11 11
19 16 17 19 20 20 24 24 26 27 28 27 27 28 27 26 26 25 24 23 22 20 20 19 18 17 17 16 16 16 15 14 14 12 12 12 12 11 11 11 11 11 11 11
17 14 15 17 18 16 19 22 25 26 27 26 27 27 27 26 25 24 22 21 20 19 19 18 18 17 16 15 15 14 14 13 13 11 11 11 11 11 11 11 12 11 11 11
16 15 14 16 18 18 24 23 25 27 28 27 27 26 26 25 24 23 21 20 19 19 18 18 17 16 15 14 14 13 13 13 11 11 11 11 11 11 11 11 11 11 11 11
14 14 15 15 14 15 16 19 24 23 26 27 25 24 25 25 23 22 20 19 19 18 17 16 15 15 14 13 13 12 12 12 11 11 11 11 11 11 11 11 11 11 11 11
Height
1470 1480 1488 1476 1475 1483 1493 1501 1507 1499 1494 1510 1520 1513 1501 1499 1505 1505 1502 1504 1507 1510 1511 1513 1515 1517 1520 1523 1526 1529 1530 1532 1534 1536 1538 1539 1539 1540 1540 1540 1541 1541 1540 1541
1474 1484 1471 1464 1468 1483 1491 1499 1503 1495 1489 1501 1518 1516 1508 1497 1510 1507 1496 1497 1500 1504 1508 1511 1514 1515 1517 1519 1523 1525 1526 1527 1529 1532 1535 1537 1537 1537 1538 1538 1538 1538 1537 1539
1478 1468 1461 1464 1475 1481 1492 1504 1495 1496 1483 1490 1517 1538 1525 1508 1501 1504 1488 1490 1493 1496 1499 1504 1508 1511 1513 1515 1519 1521 1524 1526 1527 1530 1533 1534 1535 1535 1535 1535 1535 1535 1536 1536
1468 1459 1461 1473 1472 1466 1497 1479 1475 1479 1486 1513 1503 1535 1522 1509 1495 1476 1477 1483 1488 1489 1492 1496 1502 1506 1507 1511 1514 1517 1520 1523 1526 1529 1530 1530 1531 1532 1533 1533 1533 1533 1533 1533
1469 1462 1465 1467 1467 1463 1479 1466 1473 1472 1475 1488 1491 1514 1508 1497 1491 1471 1466 1477 1485 1484 1486 1489 1495 1498 1501 1506 1510 1513 1516 1519 1522 1524 1527 1527 1528 1529 1530 1531 1531 1531 1531 1531
1459 1453 1455 1457 1455 1457 1456 1458 1460 1465 1476 1522 1507 1508 1509 1502 1487 1474 1473 1481 1482 1485 1487 1488 1490 1492 1497 1502 1507 1510 1512 1515 1517 1520 1522 1524 1526 1528 1528 1528 1528 1529 1530 1530
1462 1456 1449 1450 1461 1455 1462 1477 1514 1523 1518 1526 1501 1507 1496 1472 1472 1471 1483 1488 1478 1480 1487 1488 1494 1499 1498 1499 1503 1505 1508 1510 1513 1515 1518 1522 1524 1525 1526 1527 1526 1527 1528 1527
1483 1485 1453 1444 1452 1466 1462 1473 1512 1533 1532 1528 1498 1505 1491 1487 1484 1491 1491 1490 1487 1493 1478 1496 1505 1503 1502 1497 1498 1503 1506 1510 1513 1514 1515 1519 1521 1522 1523 1523 1525 1524 1525 1526
1480 1474 1440 1439 1440 1446 1462 1479 1469 1503 1504 1517 1499 1486 1481 1485 1492 1489 1478 1478 1476 1481 1483 1488 1502 1512 1494 1498 1500 1505 1508 1510 1512 1513 1514 1517 1518 1518 1516 1516 1517 1520 1521 1522
1455 1481 1446 1436 1435 1439 1450 1458 1498 1507 1532 1536 1520 1508 1511 1508 1505 1491 1478 1484 1479 1481 1487 1495 1501 1508 1501 1499 1502 1506 1507 1507 1509 1511 1513 1514 1515 1516 1517 1515 1518 1518 1517 1518
1445 1462 1454 1441 1444 1452 1452 1467 1470 1492 1510 1520 1533 1517 1501 1497 1494 1497 1500 1499 1486 1485 1488 1492 1498 1496 1495 1498 1501 1503 1505 1506 1508 1510 1513 1514 1514 1515 1515 1515 1515 1514 1515 1515
1439 1450 1469 1455 1430 1423 1431 1445 1453 1489 1503 1500 1498 1516 1495 1493 1491 1491 1488 1493 1490 1489 1490 1491 1492 1492 1495 1498 1501 1503 1505 1506 1508 1509 1511 1512 1512 1513 1514 1514 1513 1512 1512 1513
1434 1455 1481 1468 1445 1422 1436 1435 1436 1444 1452 1477 1493 1512 1496 1492 1474 1464 1466 1480 1489 1491 1494 1493 1494 1496 1498 1501 1503 1504 1506 1507 1508 1510 1510 1512 1513 1513 1514 1513 1512 1512 1512 1512
1430 1445 1460 1479 1456 1444 1450 1441 1432 1442 1469 1471 1475 1491 1493 1485 1477 1472 1476 1481 1488 1489 1493 1494 1497 1499 1501 1502 1505 1506 1507 1508 1509 1510 1511 1512 1513 1513 1513 1513 1513 1513 1513 1512
1432 1454 1446 1442 1436 1433 1434 1439 1433 1444 1444 1457 1457 1463 1470 1468 1468 1468 1472 1479 1482 1490 1493 1497 1497 1499 1500 1503 1506 1506 1507 1508 1509 1510 1512 1512 1513 1514 1513 1513 1512 1512 1512 1511
1428 1453 1442 1450 1435 1433 1436 1428 1430 1423 1428 1432 1441 1452 1448 1459 1462 1465 1468 1472 1479 1488 1493 1494 1495 1497 1499 1504 1505 1506 1508 1509 1510 1511 1511 1512 1514 1514 1514 1513 1512 1512 1511 1511
1432 1443 1453 1466 1442 1440 1454 1434 1429 1424 1421 1423 1447 1447 1453 1461 1462 1463 1468 1474 1477 1485 1489 1491 1494 1495 1501 1504 1505 1506 1506 1507 1509 1510 1511 1513 1513 1512 1512 1511 1512 1512 1511 1511
1431 1441 1448 1463 1450 1478 1436 1414 1415 1419 1420 1423 1426 1437 1446 1454 1461 1464 1470 1473 1477 1481 1485 1489 1492 1497 1502 1502 1504 1505 1507 1507 1507 1508 1510 1511 1510 1510 1510 1510 1510 1510 1509 1508
1416 1432 1451 1466 1467 1446 1431 1419 1419 1424 1429 1422 1423 1443 1453 1472 1467 1463 1467 1470 1474 1478 1484 1490 1495 1498 1500 1501 1503 1505 1505 1506 1507 1507 1508 1509 1509 1509 1508 1508 1507 1507 1506 1505
1413 1418 1438 1451 1465 1472 1435 1420 1411 1407 1451 1436 1437 1446 1450 1457 1466 1463 1463 1468 1474 1478 1485 1491 1494 1498 1500 1502 1503 1505 1505 1506 1507 1508 1507 1507 1507 1507 1507 1506 1505 1504 1504 1503
1441 1434 1443 1446 1451 1434 1418 1415 1412 1437 1450 1434 1435 1444 1460 1448 1448 1457 1460 1468 1474 1478 1483 1489 1492 1496 1500 1502 1504 1504 1505 1506 1507 1507 1507 1506 1506 1505 1504 1504 1503 1502 1502 1502
1461 1464 1455 1445 1445 1457 1425 1417 1427 1428 1427 1428 1430 1449 1428 1447 1452 1459 1462 1468 1472 1477 1482 1486 1490 1495 1499 1502 1503 1503 1505 1505 1506 1506 1506 1505 1505 1504 1504 1503 1502 1502 1502 1501
1468 1465 1469 1459 1458 1445 1440 1426 1425 1425 1423 1427 1431 1438 1440 1445 1457 1459 1462 1470 1473 1477 1482 1485 1488 1493 1497 1500 1501 1503 1504 1504 1504 1503 1504 1503 1503 1503 1502 1502 1501 1500 1500 1499
1458 1455 1466 1461 1448 1438 1442 1450 1433 1428 1427 1430 1433 1437 1441 1450 1454 1459 1465 1470 1475 1481 1482 1485 1489 1493 1497 1499 1500 1501 1502 1502 1502 1502 1503 1502 1502 1502 1501 1501 1500 1499 1499 1497
1452 1453 1457 1463 1453 1443 1436 1447 1444 1429 1428 1431 1436 1437 1447 1451 1456 1460 1465 1472 1478 1482 1484 1487 1489 1492 1495 1497 1499 1500 1500 1500 1501 1502 1502 1502 1501 1501 1500 1499 1499 1497 1496 1494
1448 1450 1459 1460 1455 1452 1447 1442 1446 1433 1432 1432 1431 1447 1448 1450 1457 1462 1466 1474 1479 1481 1485 1488 1490 1493 1495 1496 1498 1499 1499 1499 1500 1500 1500 1500 1500 1500 1500 1498 1496 1496 1494 1492
Wind_Speed
21 4 6 1 5 6 8 12 13 9 8 7 5 12 15 16 19 13 22 26 23 30 31 28 27 26 28 28 26 22 21 19 19 18 18 16 15 13 15 16 15 15 15 13
7 8 9 8 7 13 8 8 8 13 11 10 16 15 11 11 13 24 24 29 27 27 31 31 27 29 30 31 23 25 22 21 22 20 17 12 12 13 12 12 13 15 9 13
9 13 13 3 10 1 8 6 7 11 12 19 12 3 6 7 23 33 11 20 32 27 33 35 31 31 29 31 28 25 24 23 20 20 17 15 14 17 14 14 13 11 11 12
9 13 5 4 12 8 8 5 22 19 11 7 19 4 10 10 22 8 13 17 28 32 31 37 33 29 33 31 28 26 24 17 16 19 21 20 15 13 9 9 9 11 11 11
14 10 2 10 15 7 12 19 22 22 5 7 2 4 4 4 5 6 14 18 15 38 35 38 37 30 32 30 32 27 22 15 12 15 19 21 19 16 12 10 11 10 11 11
15 14 9 21 16 9 5 3 7 5 1 5 0 4 4 5 9 9 9 14 25 24 35 38 35 33 31 29 31 28 22 17 14 14 16 22 21 17 14 14 13 13 13 13
14 15 8 11 4 4 1 5 4 6 5 2 6 3 7 8 9 15 7 13 41 37 30 30 28 32 26 32 32 30 26 22 18 15 17 18 19 17 17 15 14 14 15 16
10 12 12 7 6 8 5 5 4 4 3 5 3 3 1 18 23 28 33 28 43 14 24 22 2 4 19 32 33 32 29 22 17 14 17 16 15 17 19 18 15 16 15 17
6 12 11 11 7 7 6 2 5 4 3 0 3 2 9 16 18 26 6 18 35 29 30 51 39 19 30 29 30 26 23 14 11 9 9 13 17 17 18 16 15 16 20 19
13 7 11 12 10 10 8 10 4 3 4 3 6 4 3 11 20 22 13 10 24 31 30 29 18 22 26 21 19 20 15 11 7 9 11 14 16 13 11 11 12 13 15 17
11 7 18 7 5 11 6 5 6 7 5 6 2 3 5 13 12 4 19 31 18 19 24 23 22 18 22 23 21 17 13 9 7 6 6 9 11 8 10 12 13 14 15 14
11 5 6 11 13 14 10 8 9 5 6 6 6 4 10 11 16 18 1 13 15 16 21 22 18 17 16 14 12 9 8 4 4 4 4 3 2 1 1 2 6 8 10 10
4 3 4 11 10 4 6 8 7 4 4 5 4 4 8 12 7 18 19 7 8 18 17 16 13 10 9 7 6 5 4 6 5 4 6 8 8 7 7 7 8 6 5 5
4 3 7 7 5 3 6 13 7 6 2 3 5 11 12 9 13 23 14 15 15 16 20 19 15 11 7 6 10 12 10 7 11 9 8 6 6 5 6 8 7 5 6 6
3 5 6 8 7 6 6 12 9 9 8 3 10 10 25 22 21 33 27 27 21 18 20 20 18 14 9 13 12 9 8 11 8 5 5 6 6 5 4 3 5 5 4 4
3 6 5 7 3 5 5 12 13 2 4 4 10 5 13 21 21 21 27 29 25 22 21 17 13 12 14 16 14 9 9 8 7 3 4 4 3 1 2 1 2 4 5 5
7 3 3 7 9 6 5 15 13 8 2 2 6 6 10 6 10 24 26 31 30 27 23 20 15 13 14 14 15 16 14 13 10 8 7 6 4 5 5 4 4 6 7 6
8 6 3 5 6 7 8 8 7 7 9 11 8 17 20 19 21 27 23 29 27 25 24 19 16 18 17 19 19 14 15 13 12 10 7 5 4 3 2 5 7 7 8 9
9 7 2 5 4 6 9 11 3 4 5 5 15 19 33 22 19 14 27 27 26 25 20 19 20 19 23 18 11 11 9 9 7 8 7 5 5 5 7 7 8 9 9 9
9 7 6 3 5 6 8 6 15 5 4 11 26 19 33 41 11 7 32 31 29 26 24 24 21 22 19 15 10 7 5 5 5 6 7 5 4 4 7 8 10 9 8 7
5 5 5 4 5 5 3 5 9 2 4 10 34 24 20 7 18 29 33 33 29 26 30 28 24 20 15 10 10 12 10 10 8 10 6 5 5 6 9 10 12 9 7 7
3 4 4 4 3 6 16 7 4 7 13 28 31 34 13 32 35 33 37 34 32 32 30 25 22 20 18 13 15 15 13 10 8 7 7 7 6 5 7 10 8 7 8 8
3 1 3 2 4 14 32 13 18 21 19 12 10 30 35 37 35 35 33 31 30 27 23 21 19 17 17 15 13 12 10 7 5 3 5 6 6 7 10 10 10 7 7 8
3 4 2 4 5 16 31 34 4 16 10 12 26 32 28 32 31 29 28 26 25 23 20 16 14 14 15 14 11 8 6 4 2 2 3 4 4 5 6 11 10 6 9 13
1 3 4 3 5 23 33 29 14 16 10 25 23 24 31 30 29 29 26 23 24 21 18 14 12 11 10 7 5 4 2 2 4 2 4 5 4 3 7 8 10 11 11 12
8 5 3 3 6 12 33 50 24 22 27 32 32 23 29 28 30 28 27 27 26 23 20 17 13 9 6 5 3 2 1 2 2 4 1 3 5 5 8 10 10 11 14 16
Wind_Direction
240 225 251 292 115 150 159 125 163 317 246 149 167 173 265 288 316 270 182 175 188 191 192 187 191 193 196 198 199 207 214 217 222 227 237 245 261 264 268 263 264 263 259 251
273 236 190 154 170 160 168 143 221 224 252 154 161 203 255 346 322 296 195 181 192 196 188 189 192 197 200 205 206 206 208 211 222 231 241 254 267 264 266 256 253 257 261 243
233 243 240 167 140 188 132 145 233 229 252 187 156 261 217 185 241 260 219 199 192 200 187 190 195 199 206 208 205 205 206 216 227 229 227 232 243 252 256 259 261 280 252 248
251 261 208 210 240 180 130 171 257 246 234 155 180 127 223 200 217 218 254 245 205 195 194 188 187 197 206 210 204 204 210 224 230 221 223 224 238 255 264 270 276 264 246 256
248 255 25 303 246 233 211 191 225 240 263 134 65 90 207 281 292 238 259 254 260 192 197 185 189 192 204 209 202 205 211 221 230 233 226 225 234 248 265 256 255 245 256 254
257 255 162 236 256 65 348 28 334 279 270 84 89 93 201 200 217 240 241 282 283 222 194 192 193 192 196 207 207 208 208 218 223 229 221 222 233 245 246 248 255 252 255 261
278 273 240 218 84 120 0 50 341 6 29 281 16 77 239 257 196 201 219 128 254 259 186 183 185 189 193 203 200 211 209 206 214 230 234 226 232 237 245 251 258 260 263 260
242 277 254 232 180 187 190 189 144 172 220 246 321 191 270 77 48 319 292 201 230 168 105 57 90 208 320 199 199 206 202 202 207 227 239 239 239 241 246 249 259 259 256 262
234 241 252 219 225 164 158 121 108 123 164 272 225 159 40 56 31 312 300 94 104 128 141 197 217 168 221 191 191 197 190 191 208 228 227 234 247 251 241 235 242 245 245 251
256 297 273 268 194 229 184 159 122 339 102 294 293 3 112 101 127 260 316 47 108 125 149 175 159 200 137 133 135 150 158 178 225 232 230 234 244 263 272 275 274 275 274 265
224 205 275 322 192 201 240 187 70 107 143 163 258 83 190 176 198 264 323 328 100 115 133 137 121 129 130 135 142 145 159 181 215 229 220 240 269 274 276 277 275 272 276 279
213 199 253 246 277 205 201 214 179 135 205 221 158 153 145 160 168 171 262 320 112 112 113 119 118 117 124 133 141 153 163 185 270 254 248 236 253 270 324 308 306 294 290 298
250 237 286 321 310 148 200 237 220 210 174 200 135 177 139 223 84 150 186 236 153 130 125 125 129 127 132 142 164 175 145 131 119 95 88 93 99 81 63 61 56 60 38 20
87 281 176 216 230 197 296 325 233 211 156 220 151 147 196 204 162 189 213 206 155 133 141 146 152 162 164 145 142 136 132 108 104 95 80 67 116 94 81 72 74 64 48 56
135 253 278 279 283 232 192 276 240 204 218 187 201 175 183 187 179 197 208 162 144 140 151 158 159 167 177 151 135 127 120 119 121 119 97 105 116 112 96 71 70 66 54 47
235 246 292 306 266 218 229 270 287 247 229 243 144 114 171 175 161 147 150 152 159 174 166 171 179 175 161 158 158 148 131 159 162 159 204 157 172 244 270 270 342 345 342 351
186 172 244 265 283 250 239 238 244 226 60 135 128 154 140 175 173 151 162 164 169 177 170 174 175 171 169 165 171 172 173 172 175 186 162 161 186 214 241 281 317 327 323 321
172 204 176 240 288 282 254 280 251 240 131 116 139 142 166 174 179 168 170 165 168 168 164 165 170 175 171 178 184 198 186 178 181 167 181 175 203 228 284 310 313 313 309 306
190 180 214 160 252 270 300 284 234 233 161 132 126 118 105 262 171 185 178 173 168 163 160 166 163 164 176 175 173 158 151 140 156 162 176 209 234 268 288 308 315 319 318 308
277 175 164 159 204 239 247 325 336 331 45 31 126 147 154 193 166 201 171 166 161 156 162 162 162 163 159 153 159 161 178 191 236 256 281 272 279 291 303 316 322 327 328 327
351 337 195 231 219 227 219 274 299 45 188 106 88 73 267 159 181 163 156 154 150 154 159 157 158 162 152 150 168 180 196 211 235 264 274 299 320 299 304 329 338 345 18 29
4 334 354 352 356 319 347 328 135 182 137 102 106 121 118 112 126 138 139 145 151 145 148 157 156 143 149 165 191 189 199 216 238 255 275 300 324 310 322 338 15 40 14 5
235 59 315 52 243 335 343 86 126 149 139 116 69 147 126 126 132 134 137 145 144 142 148 159 163 165 165 176 204 212 220 239 255 263 294 323 347 3 11 17 6 10 3 332
132 65 197 311 315 326 324 311 22 160 144 88 122 126 127 137 137 137 144 142 139 149 157 166 177 172 170 182 199 224 241 261 235 255 324 9 10 2 341 342 341 322 307 319
196 193 166 220 0 358 296 289 191 125 176 123 128 128 148 145 147 152 147 144 150 156 158 178 178 171 166 178 194 223 233 194 180 225 59 0 354 0 341 352 336 334 333 332
184 196 126 215 80 24 300 285 230 154 164 172 155 196 155 154 154 157 151 157 160 156 158 163 175 186 178 182 180 215 0 56 90 148 231 279 320 24 0 339 333 332 326 321